Location: ????????
(55.5667°N, 37.5833°E)
Time: 02:28:40
(UTC+00:00)

Cosmos 1470 Rocket - Pass Details

Date: 14 April 2026
Orbit: 596 x 626 km, 82.5° (Epoch: 20 May)

Event Time Altitude Azimuth Distance (km) Brightness Sun altitude
Rises 17:23:08 0° 199° (SSW) 2,880 6.9 -7.3°
Reaches altitude 10° 17:25:23 10° 203° (SSW) 1,974 6.1 -7.6°
Maximum altitude 17:29:43 64° 285° (WNW) 682 4.1 -8.1°
Drops below altitude 10° 17:34:04 10° 7° (N) 1,971 6.5 -8.6°
Sets 17:36:18 0° 11° (N) 2,875 7.3 -8.9°
